Location: New Plymouth
(39.0670°S, 174.0830°E)
Time: 19:13:45
(UTC+12:00)

STRAND 1 - Pass Details

Date: 01 September 2019
Orbit: 768 x 782 km, 98.5° (Epoch: 17 September)

Event Time Altitude Azimuth Distance (km) Brightness Sun altitude
Rises 18:52:52 0° 21° (NNE) 3,252 ? -10.9°
Reaches altitude 10° 18:55:10 10° 23° (NNE) 2,334 ? -11.3°
Maximum altitude 19:00:18 72° 106° (ESE) 833 ? -12.3°
Drops below altitude 10° 19:05:31 10° 189° (S) 2,370 ? -13.3°
Sets 19:07:52 0° 190° (S) 3,306 ? -13.8°
